Regional Weather Roundup
Issued by NWS

Home | Current Version | Previous Version | Text Only | Print | Product List | Glossary Off
Versions: 1 2 3 4 5 6 7 8 9 10 11 12 13 14 15 16 17 18 19 20 21 22 23 24 25 26 27 28 29 30 31 32 33 34 35 36 37 38 39 40 41 42 43 44 45 46 47 48 49 50

000
ASUS45 KABQ 272310
RWRNM
WEATHER ROUNDUP FOR NEW MEXICO
NATIONAL WEATHER SERVICE ALBUQUERQUE NM
400 PM MST THU NOV 27 2014

NOTE: "FAIR" MEANS FEW OR NO CLOUDS BELOW 12,000 FEET AGL WITH NO
       SIGNIFICANT WEATHER OR OBSTRUCTIONS TO VISION.

      THIS PRODUCT IS RELEASED AS TWO VERSIONS.  ONE VERSION NEAR
      THE TOP OF THE HOUR CONTAINING PRELIMINARY DATA FROM ALBUQUERQUE
      AND OTHER STATIONS.  A FINAL VERSION WITH ADDITIONAL DATA IS
      ISSUED ABOUT 10 MINUTES AFTER THE HOUR.

NMZ501-503-504-510>518-280000-
NORTHWEST PLATEAU/NORTHCENTRAL MOUNTAINS

CITY           SKY/WX    TMP DP  RH WIND       PRES   REMARKS
FARMINGTON     CLEAR     56  20  24 W6        30.34F
LOS ALAMOS     CLEAR     55  19  25 S3        30.39S
SANTA FE       CLEAR     56  20  24 SW8       30.34F
TAOS           CLEAR     54  23  30 S3        30.37S
ANGEL FIRE     FAIR      45  18  34 W7        30.40S

$$
NMZ402-403-502-505>509-280000-
WESTCENTRAL MOUNTAINS/SOUTHWEST MOUNTAINS

CITY           SKY/WX    TMP DP  RH WIND       PRES   REMARKS
GALLUP         SUNNY     63  11  13 NW5       30.36F
GRANTS         CLEAR     63   9  12 CALM      30.37S
SILVER CITY    SUNNY     63  19  19 S3        30.36R

$$
NMZ407-409-411-412-280000-
SOUTHERN DESERTS

CITY           SKY/WX    TMP DP  RH WIND       PRES   REMARKS
LORDSBURG      FAIR      66  23  19 E13       30.28F
DEMING         SUNNY     67  23  19 SE6       30.30S
LAS CRUCES     SUNNY     66  21  18 CALM      30.32S
HOLLOMAN AFB   PTCLDY    65  23  20 W2        30.30S
ALAMOGORDO     PTCLDY    64  23  20 W5        30.31S
T OR C         SUNNY     64  21  19 S6        30.31S

$$
NMZ519>523-280000-
CENTRAL VALLEYS/CENTRAL HIGHLANDS

CITY           SKY/WX    TMP DP  RH WIND       PRES   REMARKS
ALBUQUERQUE    PTCLDY    59  21  23 CALM      30.34S
DOUBLE EAGLE   CLEAR     59  19  21 CALM      30.35F
MORIARTY ARPT  FAIR      62  21  21 NW7       30.35S
CLINES CORNERS CLEAR     57  22  25 NW12      30.35R
BELEN          FAIR      60  21  22 NE5       30.33S
SOCORRO        FAIR      63  20  19 CALM      30.32F

$$
NMZ524>526-539-540-280000-
SOUTHCENTRAL MOUNTAINS

CITY           SKY/WX    TMP DP  RH WIND       PRES   REMARKS
RUIDOSO        CLEAR     57  19  23 NW8       30.39S

$$
NMZ527>531-280000-
NORTHEAST HIGHLANDS/NORTHEAST PLAINS

CITY           SKY/WX    TMP DP  RH WIND       PRES   REMARKS
LAS VEGAS      CLEAR     63  16  16 SE12      30.30S
RATON          MOCLDY    58  24  27 CALM      30.24F
CLAYTON        MOCLDY    57  27  31 S9        30.19S

$$
NMZ532>537-280000-
EASTCENTRAL PLAINS

CITY           SKY/WX    TMP DP  RH WIND       PRES   REMARKS
TUCUMCARI      CLEAR     63  27  25 SW15      30.20F
CANNON AFB     CLEAR     62  27  25 SW14      30.26S
CLOVIS AIRPORT CLEAR     63  27  25 SW15      30.25F

$$
NMZ028-029-538-280000-
SOUTHEAST PLAINS

CITY           SKY/WX    TMP DP  RH WIND       PRES   REMARKS
ROSWELL        CLEAR     61  29  29 S13       30.28S
CARLSBAD       CLEAR     60  30  32 S12       30.28F
HOBBS          CLEAR     59  28  31 S15       30.31F


$$



USA.gov is the U.S. government's official web portal to all federal, state and local government web resources and services.